#timestamp,LO_Frequency,Hit,StdDev 
1576098015.5,286047000.7,N
1576098035.4,286047000.8,N
1576098055.2,286047000.7,N
1576098075.0,286046998.5,N
1576098075.9,286046998.5,N
1576098095.8,286046999.0,N
1576098115.6,286047000.6,N
1576098135.4,286047000.9,N
1576098155.3,286047000.7,N
1576098175.1,286046998.1,N
1576098195.9,286046999.4,N
1576098215.7,286046998.4,N
1576098235.5,286046998.4,N
1576098255.4,286047000.9,N
1576098275.2,286047001.1,N
1576098295.0,286046999.7,N
1576098296.0,286046999.7,N
1576098315.8,286047002.5,N
1576098335.6,286047001.3,N
1576098355.5,286047002.4,N
1576098375.3,286047002.8,N
1576098395.1,286047004.3,N
1576098415.9,286047003.4,N
1576098435.7,286047005.6,Y
1576098455.6,286047005.1,P
1576098475.4,286047003.4,N
1576098495.2,286047003.9,N
1576098515.1,286047003.8,N
1576098516.0,286047003.8,N
1576098535.8,286047003.6,N
1576098555.6,286047003.9,N
1576098575.5,286047004.4,Y
1576098595.3,286046998.6,P
1576098615.2,286046998.5,N
1576098635.9,286046999.4,N
1576098655.7,286046998.7,N
1576098675.6,286046998.4,N
1576098695.4,286046998.1,N
1576098715.3,286047001.1,N
1576098735.1,286047001.1,N
1576098736.0,286047001.1,N
1576098755.8,286047000.5,N
1576098775.7,286046999.1,N
1576098795.5,286046996.7,N
1576098815.3,286046997.0,N
1576098835.2,286046996.7,N
1576098855.0,286046998.5,N
1576098855.9,286046998.5,N
1576098875.8,286047000.2,N
1576098895.6,286046999.9,N
1576098915.4,286046999.7,N
1576098935.3,286047002.8,N
1576098955.1,286047002.3,N
1576098975.8,286047002.4,N
1576098995.7,286047000.6,N
1576099015.5,286047002.8,N
1576099035.4,286047002.3,N
1576099055.2,286047001.0,N
1576099075.0,286047000.3,N
1576099075.9,286047000.3,N
1576099095.8,286047000.9,N
1576099115.6,286047001.1,N
1576099135.5,286046998.7,N
1576099155.3,286046998.2,N
1576099175.1,286047002.4,N
1576099195.9,286047004.3,N
1576099215.7,286047004.3,N
1576099235.5,286047002.2,N
1576099255.4,286047002.6,N
1576099275.2,286047001.1,N
1576099295.1,286047000.0,N
1576099296.0,286047000.0,N
1576099315.8,286047004.1,N
1576099335.6,286047002.3,N
1576099355.5,286047002.0,N
1576099375.3,286047002.2,N
1576099395.1,286047000.1,N
1576099415.9,286047001.6,N
1576099435.7,286047002.1,N
1576099455.6,286047002.7,N
1576099475.4,286047000.7,N
1576099495.2,286046998.2,N
1576099515.1,286047002.8,N
1576099516.0,286047002.8,N
1576099535.8,286047001.1,N
1576099555.6,286046998.7,N
1576099575.5,286046998.5,N
1576099595.3,286047002.6,N
1576099615.2,286047002.2,N
1576099635.9,286046999.9,N
1576099655.7,286047002.8,N
1576099675.6,286047000.7,N
1576099695.4,286046998.9,N
1576099715.3,286046998.4,N
1576099735.1,286046998.2,N
1576099736.0,286046998.2,N
1576099755.8,286046999.9,N
1576099775.7,286047002.4,N
1576099795.5,286047000.2,N
1576099815.3,286047002.8,N
1576099835.2,286046999.9,N
1576099855.0,286047003.5,N
1576099855.9,286047003.5,N
1576099875.8,286046999.7,N
1576099895.6,286047000.2,N
1576099915.4,286047000.1,N
1576099935.3,286047001.0,N
1576099955.1,286047000.8,N
1576099975.8,286047000.3,N
1576099995.7,286047000.0,N
1576100015.5,286047000.9,N
1576100035.4,286047000.0,N
1576100055.2,286047000.7,N
1576100075.0,286046999.9,N
1576100075.9,286046999.9,N
1576100095.8,286047000.3,N
1576100115.6,286047000.2,N
1576100135.4,286047001.0,N
1576100155.3,286047000.0,N
1576100175.1,286047002.2,N
1576100195.9,286047000.2,N
1576100215.7,286047000.4,N
1576100235.5,286047002.4,N
1576100255.4,286047001.9,N
1576100275.2,286047002.5,N
1576100295.0,286047002.1,N
1576100296.0,286047002.1,N
1576100315.8,286047002.6,N
1576100335.6,286047000.2,N
1576100355.5,286047002.6,N
1576100375.3,286047000.6,N
1576100395.1,286047000.4,N
1576100415.9,286046998.8,N
1576100435.7,286047001.2,N
1576100455.6,286047001.2,N
1576100475.4,286047002.4,N
1576100495.2,286047002.8,N
1576100515.1,286047000.1,N
1576100516.0,286047000.1,N
1576100535.8,286047000.7,N
1576100555.6,286046999.7,N
1576100575.5,286047001.1,N
1576100595.3,286047000.6,N
1576100615.2,286047002.5,N
1576100635.9,286047004.2,Y
1576100655.7,286047004.0,P
1576100675.6,286047004.3,N
1576100695.4,286047001.6,N
1576100715.2,286047002.7,N
1576100735.1,286047001.3,N
1576100736.0,286047001.3,N
1576100755.8,286047002.3,N
1576100775.7,286047000.1,N
1576100795.5,286046999.9,N
1576100815.3,286047000.4,N
1576100835.2,286047000.5,N
1576100855.0,286047001.2,N
1576100855.9,286047001.2,N
1576100875.8,286046998.2,N
1576100895.6,286046998.7,N
1576100915.4,286046998.8,N
1576100935.3,286046998.4,N
1576100955.1,286047000.7,N
1576100975.8,286046996.9,N
1576100995.7,286046998.1,N
1576101015.5,286046998.2,N
1576101035.4,286047000.6,N
1576101055.2,286046998.6,N
1576101075.0,286046999.3,N
1576101075.9,286046999.3,N
1576101095.8,286047001.2,N
1576101115.6,286047000.5,N
1576101135.4,286046998.2,N
1576101155.3,286047000.6,N
1576101175.1,286046998.5,N
1576101195.9,286046998.7,N
1576101215.7,286047000.8,N
1576101235.5,286046998.6,N
1576101255.4,286046996.5,N
1576101275.2,286046999.4,N
1576101295.0,286046996.6,N
1576101296.0,286046996.6,N
1576101315.8,286046995.4,Y
1576101335.6,286046995.0,P
1576101355.5,286046997.7,N
1576101375.3,286046995.5,N
1576101395.1,286046995.2,N
1576101415.9,286046997.4,N
1576101435.7,286046997.9,N
1576101455.6,286046996.1,N
1576101475.4,286046995.9,N
1576101495.2,286046995.4,Y
1576101515.1,286046998.7,P
1576101516.0,286046998.7,N
1576101535.8,286047000.8,N
1576101555.7,286046998.8,N
1576101575.5,286046997.1,N
1576101595.3,286046997.0,N
